This is the latest recevied weather packets stored in our database for station/object K5WNG. If no packets are shown the sender has not sent any weather packets the latest 10 day(s).
| Time | Temp. | Humidity | Pressure | Rain* | Wind** | Luminosity | Snow |
|---|---|---|---|---|---|---|---|
| 1777594515 | 18.89° C | 96% | 1010.8 hPa | 0 mm | - | 17 W/m² | - |
| 1777594218 | 18.89° C | 95% | 1010.9 hPa | 0 mm | - | 16 W/m² | - |
| 1777593916 | 19.44° C | 95% | 1011 hPa | 0 mm | - | 30 W/m² | - |
| 1777593615 | 19.44° C | 95% | 1010.9 hPa | 0 mm | - | 70 W/m² | - |
| 1777593319 | 19.44° C | 95% | 1010.9 hPa | 0 mm | - | 109 W/m² | - |
| 1777593016 | 19.44° C | 96% | 1010.9 hPa | 0 mm | - | 99 W/m² | - |
| 1777592718 | 18.89° C | 96% | 1010.8 hPa | 0 mm | - | 119 W/m² | - |
| 1777592416 | 18.89° C | 96% | 1010.6 hPa | 0 mm | - | 176 W/m² | - |
| 1777592116 | 18.89° C | 97% | 1010.5 hPa | 0 mm | - | 159 W/m² | - |
| 1777591816 | 18.89° C | 96% | 1010.7 hPa | 0 mm | - | 62 W/m² | - |
| 1777591519 | 18.89° C | 96% | 1010.9 hPa | 0 mm | - | 57 W/m² | - |
| 1777591219 | 18.89° C | 96% | 1011.1 hPa | 0 mm | - | 65 W/m² | - |
| 1777590921 | 18.89° C | 96% | 1011.4 hPa | 0 mm | - | 70 W/m² | - |
| 1777590616 | 18.89° C | 97% | 1011.3 hPa | 0 mm | - | 99 W/m² | - |
| 1777590319 | 18.89° C | 96% | 1011.4 hPa | 0 mm | - | 82 W/m² | - |
| 1777590016 | 18.89° C | 96% | 1011.9 hPa | 0 mm | - | 48 W/m² | - |
| 1777589717 | 18.89° C | 96% | 1012 hPa | 0 mm | - | 46 W/m² | - |
| 1777589419 | 18.89° C | 96% | 1011.9 hPa | 0 mm | - | 48 W/m² | - |
| 1777589117 | 18.89° C | 96% | 1011.7 hPa | 0 mm | - | 44 W/m² | - |
| 1777588820 | 18.89° C | 96% | 1011.5 hPa | 0 mm | - | 33 W/m² | - |
| 1777588520 | 18.89° C | 96% | 1011.3 hPa | 0 mm | - | 37 W/m² | - |
| 1777588217 | 18.89° C | 96% | 1011.2 hPa | 0 mm | - | 43 W/m² | - |
| 1777587917 | 18.89° C | 96% | 1011.1 hPa | 0 mm | - | 47 W/m² | - |
| 1777587620 | 18.89° C | 96% | 1011 hPa | 0 mm | - | 62 W/m² | - |
| 1777587320 | 18.89° C | 96% | 1010.8 hPa | 0 mm | - | 68 W/m² | - |
* Rain latest hour (hover to see other rain measurements)
** Current wind speed in m/s (hover to see current wind gust speed)